Regional Weather Roundup
Issued by NWS

Home | Current Version | Previous Version | Graphics & Text | Print | Product List | Glossary On
Versions: 1 2 3 4 5 6 7 8 9 10 11 12 13 14 15 16 17 18 19 20 21 22 23 24 25 26 27 28 29
000
ASUS45 KCYS 300010
RWRWY

WYOMING REGIONAL WEATHER ROUNDUP
NATIONAL WEATHER SERVICE CHEYENNE WY
600 PM MDT WED OCT 29 2014

NOTE:  "FAIR" INDICATES FEW OR NO CLOUDS BELOW 12,000 FEET
WITH NO SIGNIFICANT WEATHER AND/OR OBSTRUCTIONS TO VISIBILITY.

WYZ001-300100-
YELLOWSTONE NATIONAL PARK

CITY           SKY/WX    TMP DP  RH WIND       PRES   REMARKS
LK YELLOWSTONE   N/A     37  26  64 CALM      30.30
6HR MIN TEMP:  36; 6HR MAX TEMP:  43;

W YELLOWSTONE  NOT AVBL

$$
WYZ002>013-054>058-071-098>099-300100-
NORTHERN WYOMING

CITY           SKY/WX    TMP DP  RH WIND       PRES   REMARKS
JACKSON        PTCLDY    48  30  49 SW6       30.26R
CODY           CLEAR     54  25  32 W9G17     30.16
GREYBULL       CLEAR     59  24  26 NW12      30.10R
6HR MIN TEMP:  46; 6HR MAX TEMP:  65;

WORLAND        CLEAR     59  23  25 NW18G28   30.11R
6HR MIN TEMP:  50; 6HR MAX TEMP:  65;

SHERIDAN       PTCLDY    57  23  26 NW18      30.07R
6HR MIN TEMP:  57; 6HR MAX TEMP:  67;

BUFFALO        CLEAR     52  26  36 MISG      30.11R
6HR MIN TEMP:  52; 6HR MAX TEMP:  64;

GILLETTE       PTCLDY    55  25  31 NW17      30.08R
6HR MIN TEMP:  53; 6HR MAX TEMP:  63; 6HR PCP: TRACE;

HULETT         MOCLDY    54  30  40 NW7       30.05
NEWCASTLE      FAIR      52  30  43 N7        30.06

$$
WYZ014>020-022>026-101>103-300100-
CENTRAL WYOMING

CITY           SKY/WX    TMP DP  RH WIND       PRES   REMARKS
BIG PINEY      PTCLDY    47  27  45 N14       30.29R
6HR MIN TEMP:  44; 6HR MAX TEMP:  57; 6HR PCP: TRACE;

PINEDALE       MOCLDY    46  28  49 NW12      30.30
DUBOIS         FAIR      41  30  65 NW14G21   30.23R
LANDER         CLEAR     55  22  27 NW7       30.15R
6HR MIN TEMP:  55; 6HR MAX TEMP:  63;

RIVERTON       PTCLDY    54  27  35 NW14G26   30.17R
6HR MIN TEMP:  54; 6HR MAX TEMP:  63;

CASPER         CLEAR     51  21  30 N8        30.13R
6HR MIN TEMP:  51; 6HR MAX TEMP:  63;

DOUGLAS        CLEAR     56  20  24 NW15      30.11R
6HR MIN TEMP:  56; 6HR MAX TEMP:  66;


$$
WYZ021-027>030-104>119-300100-
SOUTHERN WYOMING

CITY           SKY/WX    TMP DP  RH WIND       PRES   REMARKS
EVANSTON       PTCLDY    53  28  38 W13       30.32R
6HR MIN TEMP:  53; 6HR MAX TEMP:  58;

KEMMERER       MOCLDY    48  30  49 W15G23    30.30S
FORT BRIDGER   FAIR      55  28  35 W18G28    30.32S
ROCK SPRINGS   CLEAR     51  25  36 W18G28    30.27R
6HR MIN TEMP:  50; 6HR MAX TEMP:  57;

RAWLINS        PTCLDY    51  22  31 W13       30.23R
6HR MIN TEMP:  51; 6HR MAX TEMP:  57;

SARATOGA       CLOUDY    52  25  35 W15G22    30.26R
LARAMIE        CLEAR     50  21  32 W24G38    30.20R
6HR MIN TEMP:  50; 6HR MAX TEMP:  57;

CHEYENNE       CLEAR     56  21  25 NW17G26   30.14R
6HR MIN TEMP:  56; 6HR MAX TEMP:  64;

TORRINGTON     PTCLDY    60  23  24 N14       30.04R
6HR MIN TEMP:  60; 6HR MAX TEMP:  71;

PINE BLUFFS    FAIR      57  23  26 NW18      30.11R

$$



USA.gov is the U.S. government's official web portal to all federal, state and local government web resources and services.